Year,Month,Day,Hour,Minute,Value (Times are PST for temperature in C)
2008,11,24,00,00,4.30
2008,11,24,00,01,4.30
2008,11,24,00,02,4.30
2008,11,24,00,03,4.30
2008,11,24,00,04,4.30
2008,11,24,00,05,4.30
2008,11,24,00,06,4.30
2008,11,24,00,07,4.30
2008,11,24,00,08,4.30
2008,11,24,00,09,4.30
2008,11,24,00,10,4.30
2008,11,24,00,11,4.30
2008,11,24,00,12,4.30
2008,11,24,00,13,4.30
2008,11,24,00,14,4.30
2008,11,24,00,15,4.30
2008,11,24,00,16,4.30
2008,11,24,00,17,4.30
2008,11,24,00,18,4.30
2008,11,24,00,19,4.30
2008,11,24,00,20,4.30
2008,11,24,00,21,4.30
2008,11,24,00,22,4.30
2008,11,24,00,23,4.30
2008,11,24,00,24,4.30
2008,11,24,00,25,4.30
2008,11,24,00,26,4.30
2008,11,24,00,27,4.30
2008,11,24,00,28,4.30
2008,11,24,00,29,4.30
2008,11,24,00,30,4.30
2008,11,24,00,31,4.30
2008,11,24,00,32,4.30
2008,11,24,00,33,4.40
2008,11,24,00,34,4.40
2008,11,24,00,35,4.40
2008,11,24,00,36,4.40
2008,11,24,00,37,4.40
2008,11,24,00,38,4.40
2008,11,24,00,39,4.40
2008,11,24,00,40,4.40
2008,11,24,00,41,4.40
2008,11,24,00,42,4.40
2008,11,24,00,43,4.40
2008,11,24,00,44,4.40
2008,11,24,00,45,4.40
2008,11,24,00,46,4.40
2008,11,24,00,47,4.40
2008,11,24,00,48,4.40
2008,11,24,00,49,4.40
2008,11,24,00,50,4.40
2008,11,24,00,51,4.40
2008,11,24,00,52,4.40
2008,11,24,00,53,4.40
2008,11,24,00,54,4.40
2008,11,24,00,55,4.30
2008,11,24,00,56,4.30
2008,11,24,00,57,4.30
2008,11,24,00,58,4.30
2008,11,24,00,59,4.30
2008,11,24,01,00,4.30
2008,11,24,01,01,4.30
2008,11,24,01,02,4.30
2008,11,24,01,03,4.40
2008,11,24,01,04,4.40
2008,11,24,01,05,4.40
2008,11,24,01,06,4.40
2008,11,24,01,07,4.40
2008,11,24,01,08,4.40
2008,11,24,01,09,4.50
2008,11,24,01,10,4.50
2008,11,24,01,11,4.50
2008,11,24,01,12,4.50
2008,11,24,01,13,4.50
2008,11,24,01,14,4.60
2008,11,24,01,15,4.60
2008,11,24,01,16,4.60
2008,11,24,01,17,4.70
2008,11,24,01,18,4.70
2008,11,24,01,19,4.70
2008,11,24,01,20,4.70
2008,11,24,01,21,4.70
2008,11,24,01,22,4.70
2008,11,24,01,23,4.70
2008,11,24,01,24,4.70
2008,11,24,01,25,4.70
2008,11,24,01,26,4.70
2008,11,24,01,27,4.70
2008,11,24,01,28,4.70
2008,11,24,01,29,4.70
2008,11,24,01,30,4.70
2008,11,24,01,31,4.70
2008,11,24,01,32,4.60
2008,11,24,01,33,4.60
2008,11,24,01,34,4.60
2008,11,24,01,35,4.60
2008,11,24,01,36,4.60
2008,11,24,01,37,4.60
2008,11,24,01,38,4.50
2008,11,24,01,39,4.50
2008,11,24,01,40,4.50
2008,11,24,01,41,4.50
2008,11,24,01,42,4.50
2008,11,24,01,43,4.50
2008,11,24,01,44,4.50
2008,11,24,01,45,4.50
2008,11,24,01,46,4.50
2008,11,24,01,47,4.60
2008,11,24,01,48,4.60
2008,11,24,01,49,4.60
2008,11,24,01,50,4.60
2008,11,24,01,51,4.60
2008,11,24,01,52,4.60
2008,11,24,01,53,4.60
2008,11,24,01,54,4.60
2008,11,24,01,55,4.60
2008,11,24,01,56,4.60
2008,11,24,01,57,4.60
2008,11,24,01,58,4.60
2008,11,24,01,59,4.60
2008,11,24,02,00,4.60
2008,11,24,02,01,4.60
2008,11,24,02,02,4.60
2008,11,24,02,03,4.50
2008,11,24,02,04,4.50
2008,11,24,02,05,4.50
2008,11,24,02,06,4.50
2008,11,24,02,07,4.50
2008,11,24,02,08,4.50
2008,11,24,02,09,4.50
2008,11,24,02,10,4.50
2008,11,24,02,11,4.50
2008,11,24,02,12,4.60
2008,11,24,02,13,4.60
2008,11,24,02,14,4.60
2008,11,24,02,15,4.60
2008,11,24,02,16,4.60
2008,11,24,02,17,4.60
2008,11,24,02,18,4.60
2008,11,24,02,19,4.60
2008,11,24,02,20,4.60
2008,11,24,02,21,4.60
2008,11,24,02,22,4.60
2008,11,24,02,23,4.60
2008,11,24,02,24,4.60
2008,11,24,02,25,4.60
2008,11,24,02,26,4.60
2008,11,24,02,27,4.60
2008,11,24,02,28,4.60
2008,11,24,02,29,4.60
2008,11,24,02,30,4.60
2008,11,24,02,31,4.60
2008,11,24,02,32,4.50
2008,11,24,02,33,4.50
2008,11,24,02,34,4.50
2008,11,24,02,35,4.50
2008,11,24,02,36,4.50
2008,11,24,02,37,4.40
2008,11,24,02,38,4.40
2008,11,24,02,39,4.40
2008,11,24,02,40,4.40
2008,11,24,02,41,4.40
2008,11,24,02,42,4.40
2008,11,24,02,43,4.40
2008,11,24,02,44,4.50
2008,11,24,02,45,4.50
2008,11,24,02,46,4.50
2008,11,24,02,47,4.60
2008,11,24,02,48,4.60
2008,11,24,02,49,4.70
2008,11,24,02,50,4.70
2008,11,24,02,51,4.70
2008,11,24,02,52,4.70
2008,11,24,02,53,4.70
2008,11,24,02,54,4.70
2008,11,24,02,55,4.70
2008,11,24,02,56,4.70
2008,11,24,02,57,4.70
2008,11,24,02,58,4.70
2008,11,24,02,59,4.70
2008,11,24,03,00,4.60
2008,11,24,03,01,4.60
2008,11,24,03,02,4.50
2008,11,24,03,03,4.50
2008,11,24,03,04,4.40
2008,11,24,03,05,4.40
2008,11,24,03,06,4.40
2008,11,24,03,07,4.30
2008,11,24,03,08,4.30
2008,11,24,03,09,4.20
2008,11,24,03,10,4.20
2008,11,24,03,11,4.10
2008,11,24,03,12,4.10
2008,11,24,03,13,4.00
2008,11,24,03,14,4.00
2008,11,24,03,15,3.90
2008,11,24,03,16,3.90
2008,11,24,03,17,3.80
2008,11,24,03,18,3.80
2008,11,24,03,19,3.80
2008,11,24,03,20,3.70
2008,11,24,03,21,3.70
2008,11,24,03,22,3.70
2008,11,24,03,23,3.70
2008,11,24,03,24,3.70
2008,11,24,03,25,3.70
2008,11,24,03,26,3.70
2008,11,24,03,27,3.70
2008,11,24,03,28,3.70
2008,11,24,03,29,3.70
2008,11,24,03,30,3.70
2008,11,24,03,31,3.70
2008,11,24,03,32,3.70
2008,11,24,03,33,3.70
2008,11,24,03,34,3.70
2008,11,24,03,35,3.70
2008,11,24,03,36,3.70
2008,11,24,03,37,3.60
2008,11,24,03,38,3.60
2008,11,24,03,39,3.50
2008,11,24,03,40,3.50
2008,11,24,03,41,3.50
2008,11,24,03,42,3.40
2008,11,24,03,43,3.40
2008,11,24,03,44,3.40
2008,11,24,03,45,3.30
2008,11,24,03,46,3.30
2008,11,24,03,47,3.30
2008,11,24,03,48,3.20
2008,11,24,03,49,3.20
2008,11,24,03,50,3.20
2008,11,24,03,51,3.10
2008,11,24,03,52,3.10
2008,11,24,03,53,3.10
2008,11,24,03,54,3.10
2008,11,24,03,55,3.10
2008,11,24,03,56,3.10
2008,11,24,03,57,3.10
2008,11,24,03,58,3.10
2008,11,24,03,59,3.10
2008,11,24,04,00,3.20
2008,11,24,04,01,3.20
2008,11,24,04,02,3.20
2008,11,24,04,03,3.30
2008,11,24,04,04,3.30
2008,11,24,04,05,3.30
2008,11,24,04,06,3.40
2008,11,24,04,07,3.40
2008,11,24,04,08,3.50
2008,11,24,04,09,3.50
2008,11,24,04,10,3.50
2008,11,24,04,11,3.60
2008,11,24,04,12,3.60
2008,11,24,04,13,3.60
2008,11,24,04,14,3.60
2008,11,24,04,15,3.70
2008,11,24,04,16,3.70
2008,11,24,04,17,3.70
2008,11,24,04,18,3.70
2008,11,24,04,19,3.70
2008,11,24,04,20,3.80
2008,11,24,04,21,3.80
2008,11,24,04,22,3.80
2008,11,24,04,23,3.80
2008,11,24,04,24,3.80
2008,11,24,04,25,3.80
2008,11,24,04,26,3.80
2008,11,24,04,27,3.80
2008,11,24,04,28,3.80
2008,11,24,04,29,3.80
2008,11,24,04,30,3.80
2008,11,24,04,31,3.80
2008,11,24,04,32,3.80
2008,11,24,04,33,3.80
2008,11,24,04,34,3.80
2008,11,24,04,35,3.80
2008,11,24,04,36,3.80
2008,11,24,04,37,3.80
2008,11,24,04,38,3.80
2008,11,24,04,39,3.80
2008,11,24,04,40,3.80
2008,11,24,04,41,3.80
2008,11,24,04,42,3.80
2008,11,24,04,43,3.80
2008,11,24,04,44,3.80
2008,11,24,04,45,3.80
2008,11,24,04,46,3.80
2008,11,24,04,47,3.80
2008,11,24,04,48,3.80
2008,11,24,04,49,3.80
2008,11,24,04,50,3.80
2008,11,24,04,51,3.80
2008,11,24,04,52,3.80
2008,11,24,04,53,3.80
2008,11,24,04,54,3.80
2008,11,24,04,55,3.80
2008,11,24,04,56,3.80
2008,11,24,04,57,3.80
2008,11,24,04,58,3.80
2008,11,24,04,59,3.80
2008,11,24,05,00,3.80
2008,11,24,05,01,3.80
2008,11,24,05,02,3.80
2008,11,24,05,03,3.80
2008,11,24,05,04,3.80
2008,11,24,05,05,3.80
2008,11,24,05,06,3.80
2008,11,24,05,07,3.80
2008,11,24,05,08,3.80
2008,11,24,05,09,3.80
2008,11,24,05,10,3.80
2008,11,24,05,11,3.80
2008,11,24,05,12,3.80
2008,11,24,05,13,3.80
2008,11,24,05,14,3.90
2008,11,24,05,15,3.90
2008,11,24,05,16,3.90
2008,11,24,05,17,3.90
2008,11,24,05,18,3.90
2008,11,24,05,19,3.90
2008,11,24,05,20,3.90
2008,11,24,05,21,3.90
2008,11,24,05,22,3.80
2008,11,24,05,23,3.80
2008,11,24,05,24,3.80
2008,11,24,05,25,3.80
2008,11,24,05,26,3.90
2008,11,24,05,27,3.80
2008,11,24,05,28,3.80
2008,11,24,05,29,3.80
2008,11,24,05,30,3.80
2008,11,24,05,31,3.80
2008,11,24,05,32,3.80
2008,11,24,05,33,3.90
2008,11,24,05,34,3.80
2008,11,24,05,35,3.80
2008,11,24,05,36,3.80
2008,11,24,05,37,3.80
2008,11,24,05,38,3.80
2008,11,24,05,39,3.80
2008,11,24,05,40,3.80
2008,11,24,05,41,3.80
2008,11,24,05,42,3.80
2008,11,24,05,43,3.80
2008,11,24,05,44,3.80
2008,11,24,05,45,3.80
2008,11,24,05,46,3.80
2008,11,24,05,47,3.80
2008,11,24,05,48,3.80
2008,11,24,05,49,3.80
2008,11,24,05,50,3.80
2008,11,24,05,51,3.80
2008,11,24,05,52,3.80
2008,11,24,05,53,3.90
2008,11,24,05,54,3.90
2008,11,24,05,55,3.90
2008,11,24,05,56,3.90
2008,11,24,05,57,3.90
2008,11,24,05,58,3.90
2008,11,24,05,59,3.90
2008,11,24,06,00,3.90
2008,11,24,06,01,3.90
2008,11,24,06,02,3.90
2008,11,24,06,03,3.90
2008,11,24,06,04,4.00
2008,11,24,06,05,4.00
2008,11,24,06,06,4.00
2008,11,24,06,07,4.00
2008,11,24,06,08,3.90
2008,11,24,06,09,3.90
2008,11,24,06,10,3.80
2008,11,24,06,11,3.80
2008,11,24,06,12,3.80
2008,11,24,06,13,3.70
2008,11,24,06,14,3.60
2008,11,24,06,15,3.60
2008,11,24,06,16,3.50
2008,11,24,06,17,3.50
2008,11,24,06,18,3.40
2008,11,24,06,19,3.40
2008,11,24,06,20,3.40
2008,11,24,06,21,3.30
2008,11,24,06,22,3.30
2008,11,24,06,23,3.30
2008,11,24,06,24,3.20
2008,11,24,06,25,3.20
2008,11,24,06,26,3.20
2008,11,24,06,27,3.10
2008,11,24,06,28,3.10
2008,11,24,06,29,3.10
2008,11,24,06,30,3.00
2008,11,24,06,31,3.00
2008,11,24,06,32,2.90
2008,11,24,06,33,2.80
2008,11,24,06,34,2.80
2008,11,24,06,35,2.80
2008,11,24,06,36,2.70
2008,11,24,06,37,2.70
2008,11,24,06,38,2.70
2008,11,24,06,39,2.60
2008,11,24,06,40,2.60
2008,11,24,06,41,2.60
2008,11,24,06,42,2.50
2008,11,24,06,43,2.50
2008,11,24,06,44,2.50
2008,11,24,06,45,2.50
2008,11,24,06,46,2.60
2008,11,24,06,47,2.60
2008,11,24,06,48,2.60
2008,11,24,06,49,2.60
2008,11,24,06,50,2.60
2008,11,24,06,51,2.70
2008,11,24,06,52,2.60
2008,11,24,06,53,2.60
2008,11,24,06,54,2.60
2008,11,24,06,55,2.60
2008,11,24,06,56,2.60
2008,11,24,06,57,2.60
2008,11,24,06,58,2.50
2008,11,24,06,59,2.50
2008,11,24,07,00,2.50
2008,11,24,07,01,2.50
2008,11,24,07,02,2.50
2008,11,24,07,03,2.40
2008,11,24,07,04,2.40
2008,11,24,07,05,2.40
2008,11,24,07,06,2.40
2008,11,24,07,07,2.40
2008,11,24,07,08,2.40
2008,11,24,07,09,2.30
2008,11,24,07,10,2.30
2008,11,24,07,11,2.30
2008,11,24,07,12,2.30
2008,11,24,07,13,2.20
2008,11,24,07,14,2.20
2008,11,24,07,15,2.20
2008,11,24,07,16,2.10
2008,11,24,07,17,2.10
2008,11,24,07,18,2.10
2008,11,24,07,19,2.10
2008,11,24,07,20,2.00
2008,11,24,07,21,2.00
2008,11,24,07,22,2.00
2008,11,24,07,23,1.90
2008,11,24,07,24,1.90
2008,11,24,07,25,1.90
2008,11,24,07,26,1.90
2008,11,24,07,27,1.90
2008,11,24,07,28,1.80
2008,11,24,07,29,1.80
2008,11,24,07,30,1.80
2008,11,24,07,31,1.80
2008,11,24,07,32,1.70
2008,11,24,07,33,1.70
2008,11,24,07,34,1.70
2008,11,24,07,35,1.70
2008,11,24,07,36,1.70
2008,11,24,07,37,1.70
2008,11,24,07,38,1.60
2008,11,24,07,39,1.60
2008,11,24,07,40,1.60
2008,11,24,07,41,1.60
2008,11,24,07,42,1.60
2008,11,24,07,43,1.60
2008,11,24,07,44,1.60
2008,11,24,07,45,1.60
2008,11,24,07,46,1.50
2008,11,24,07,47,1.50
2008,11,24,07,48,1.50
2008,11,24,07,49,1.50
2008,11,24,07,50,1.60
2008,11,24,07,51,1.60
2008,11,24,07,52,1.60
2008,11,24,07,53,1.60
2008,11,24,07,54,1.60
2008,11,24,07,55,1.60
2008,11,24,07,56,1.60
2008,11,24,07,57,1.50
2008,11,24,07,58,1.50
2008,11,24,07,59,1.50
2008,11,24,08,00,1.50
2008,11,24,08,01,1.50
2008,11,24,08,02,1.60
2008,11,24,08,03,1.60
2008,11,24,08,04,1.60
2008,11,24,08,05,1.60
2008,11,24,08,06,1.60
2008,11,24,08,07,1.60
2008,11,24,08,08,1.60
2008,11,24,08,09,1.60
2008,11,24,08,10,1.60
2008,11,24,08,11,1.60
2008,11,24,08,12,1.60
2008,11,24,08,13,1.60
2008,11,24,08,14,1.60
2008,11,24,08,15,1.70
2008,11,24,08,16,1.70
2008,11,24,08,17,1.70
2008,11,24,08,18,1.70
2008,11,24,08,19,1.70
2008,11,24,08,20,1.70
2008,11,24,08,21,1.80
2008,11,24,08,22,1.80
2008,11,24,08,23,1.90
2008,11,24,08,24,2.00
2008,11,24,08,25,2.10
2008,11,24,08,26,2.10
2008,11,24,08,27,2.10
2008,11,24,08,28,2.20
2008,11,24,08,29,2.20
2008,11,24,08,30,2.20
2008,11,24,08,31,2.20
2008,11,24,08,32,2.30
2008,11,24,08,33,2.30
2008,11,24,08,34,2.40
2008,11,24,08,35,2.40
2008,11,24,08,36,2.50
2008,11,24,08,37,2.60
2008,11,24,08,38,2.60
2008,11,24,08,39,2.60
2008,11,24,08,40,2.70
2008,11,24,08,41,2.70
2008,11,24,08,42,2.80
2008,11,24,08,43,2.80
2008,11,24,08,44,2.90
2008,11,24,08,45,2.90
2008,11,24,08,46,2.90
2008,11,24,08,47,3.00
2008,11,24,08,48,3.00
2008,11,24,08,49,3.10
2008,11,24,08,50,3.20
2008,11,24,08,51,3.20
2008,11,24,08,52,3.30
2008,11,24,08,53,3.40
2008,11,24,08,54,3.50
2008,11,24,08,55,3.60
2008,11,24,08,56,3.60
2008,11,24,08,57,3.60
2008,11,24,08,58,3.70
2008,11,24,08,59,3.70
2008,11,24,09,00,3.70
2008,11,24,09,01,3.70
2008,11,24,09,02,3.80
2008,11,24,09,03,3.80
2008,11,24,09,04,3.80
2008,11,24,09,05,3.80
2008,11,24,09,06,3.80
2008,11,24,09,07,3.80
2008,11,24,09,08,3.80
2008,11,24,09,09,3.80
2008,11,24,09,10,3.80
2008,11,24,09,11,3.80
2008,11,24,09,12,3.80
2008,11,24,09,13,3.70
2008,11,24,09,14,3.70
2008,11,24,09,15,3.70
2008,11,24,09,16,3.70
2008,11,24,09,17,3.70
2008,11,24,09,18,3.70
2008,11,24,09,19,3.70
2008,11,24,09,20,3.70
2008,11,24,09,21,3.60
2008,11,24,09,22,3.60
2008,11,24,09,23,3.60
2008,11,24,09,24,3.60
2008,11,24,09,25,3.60
2008,11,24,09,26,3.70
2008,11,24,09,27,3.70
2008,11,24,09,28,3.70
2008,11,24,09,29,3.70
2008,11,24,09,30,3.80
2008,11,24,09,31,3.80
2008,11,24,09,32,3.80
2008,11,24,09,33,3.90
2008,11,24,09,34,3.90
2008,11,24,09,35,4.00
2008,11,24,09,36,4.10
2008,11,24,09,37,4.10
2008,11,24,09,38,4.20
2008,11,24,09,39,4.30
2008,11,24,09,40,4.40
2008,11,24,09,41,4.50
2008,11,24,09,42,4.60
2008,11,24,09,43,4.70
2008,11,24,09,44,4.70
2008,11,24,09,45,4.80
2008,11,24,09,46,4.80
2008,11,24,09,47,4.90
2008,11,24,09,48,4.90
2008,11,24,09,49,5.00
2008,11,24,09,50,5.00
2008,11,24,09,51,5.10
2008,11,24,09,52,5.10
2008,11,24,09,53,5.10
2008,11,24,09,54,5.20
2008,11,24,09,55,5.20
2008,11,24,09,56,5.20
2008,11,24,09,57,5.30
2008,11,24,09,58,5.30
2008,11,24,09,59,5.30
2008,11,24,10,00,5.40
2008,11,24,10,01,5.40
2008,11,24,10,02,5.40
2008,11,24,10,03,5.50
2008,11,24,10,04,5.50
2008,11,24,10,05,5.50
2008,11,24,10,06,5.60
2008,11,24,10,07,5.60
2008,11,24,10,08,5.70
2008,11,24,10,09,5.70
2008,11,24,10,10,5.80
2008,11,24,10,11,5.80
2008,11,24,10,12,5.90
2008,11,24,10,13,5.90
2008,11,24,10,14,6.00
2008,11,24,10,15,6.10
2008,11,24,10,16,6.20
2008,11,24,10,17,6.30
2008,11,24,10,18,6.50
2008,11,24,10,19,6.60
2008,11,24,10,20,6.70
2008,11,24,10,21,6.90
2008,11,24,10,22,7.00
2008,11,24,10,23,7.10
2008,11,24,10,24,7.20
2008,11,24,10,25,7.30
2008,11,24,10,26,7.30
2008,11,24,10,27,7.40
2008,11,24,10,28,7.40
2008,11,24,10,29,7.50
2008,11,24,10,30,7.60
2008,11,24,10,31,7.60
2008,11,24,10,32,7.70
2008,11,24,10,33,7.70
2008,11,24,10,34,7.80
2008,11,24,10,35,7.80
2008,11,24,10,36,7.80
2008,11,24,10,37,7.90
2008,11,24,10,38,7.90
2008,11,24,10,39,8.00
2008,11,24,10,40,8.00
2008,11,24,10,41,8.00
2008,11,24,10,42,8.10
2008,11,24,10,43,8.10
2008,11,24,10,44,8.10
2008,11,24,10,45,8.10
2008,11,24,10,46,8.10
2008,11,24,10,47,8.20
2008,11,24,10,48,8.20
2008,11,24,10,49,8.20
2008,11,24,10,50,8.20
2008,11,24,10,51,8.30
2008,11,24,10,52,8.30
2008,11,24,10,53,8.30
2008,11,24,10,54,8.30
2008,11,24,10,55,8.30
2008,11,24,10,56,8.30
2008,11,24,10,57,8.30
2008,11,24,10,58,8.30
2008,11,24,10,59,8.30
2008,11,24,11,00,8.30
2008,11,24,11,01,8.30
2008,11,24,11,02,8.40
2008,11,24,11,03,8.40
2008,11,24,11,04,8.40
2008,11,24,11,05,8.40
2008,11,24,11,06,8.40
2008,11,24,11,07,8.50
2008,11,24,11,08,8.50
2008,11,24,11,09,8.60
2008,11,24,11,10,8.60
2008,11,24,11,11,8.60
2008,11,24,11,12,8.60
2008,11,24,11,13,8.60
2008,11,24,11,14,8.60
2008,11,24,11,15,8.60
2008,11,24,11,16,8.60
2008,11,24,11,17,8.60
2008,11,24,11,18,8.60
2008,11,24,11,19,8.60
2008,11,24,11,20,8.60
2008,11,24,11,21,8.70
2008,11,24,11,22,8.70
2008,11,24,11,23,8.70
2008,11,24,11,24,8.60
2008,11,24,11,25,8.60
2008,11,24,11,26,8.50
2008,11,24,11,27,8.50
2008,11,24,11,28,8.50
2008,11,24,11,29,8.40
2008,11,24,11,30,8.40
2008,11,24,11,31,8.50
2008,11,24,11,32,8.50
2008,11,24,11,33,8.50
2008,11,24,11,34,8.60
2008,11,24,11,35,8.60
2008,11,24,11,36,8.60
2008,11,24,11,37,8.70
2008,11,24,11,38,8.70
2008,11,24,11,39,8.70
2008,11,24,11,40,8.70
2008,11,24,11,41,8.70
2008,11,24,11,42,8.80
2008,11,24,11,43,8.80
2008,11,24,11,44,8.80
2008,11,24,11,45,8.80
2008,11,24,11,46,8.80
2008,11,24,11,47,8.80
2008,11,24,11,48,8.80
2008,11,24,11,49,8.80
2008,11,24,11,50,8.80
2008,11,24,11,51,8.80
2008,11,24,11,52,8.80
2008,11,24,11,53,8.90
2008,11,24,11,54,8.90
2008,11,24,11,55,8.90
2008,11,24,11,56,8.80
2008,11,24,11,57,8.80
2008,11,24,11,58,8.80
2008,11,24,11,59,8.80
2008,11,24,12,00,8.80
2008,11,24,12,01,8.80
2008,11,24,12,02,8.80
2008,11,24,12,03,8.90
2008,11,24,12,04,8.90
2008,11,24,12,05,9.00
2008,11,24,12,06,9.10
2008,11,24,12,07,9.10
2008,11,24,12,08,9.10
2008,11,24,12,09,9.10
2008,11,24,12,10,9.10
2008,11,24,12,11,9.10
2008,11,24,12,12,9.20
2008,11,24,12,13,9.20
2008,11,24,12,14,9.20
2008,11,24,12,15,9.20
2008,11,24,12,16,9.20
2008,11,24,12,17,9.30
2008,11,24,12,18,9.30
2008,11,24,12,19,9.30
2008,11,24,12,20,9.40
2008,11,24,12,21,9.40
2008,11,24,12,22,9.50
2008,11,24,12,23,9.50
2008,11,24,12,24,9.40
2008,11,24,12,25,9.40
2008,11,24,12,26,9.40
2008,11,24,12,27,9.30
2008,11,24,12,28,9.30
2008,11,24,12,29,9.40
2008,11,24,12,30,9.40
2008,11,24,12,31,9.50
2008,11,24,12,32,9.50
2008,11,24,12,33,9.50
2008,11,24,12,34,9.50
2008,11,24,12,35,9.50
2008,11,24,12,36,9.50
2008,11,24,12,37,9.50
2008,11,24,12,38,9.40
2008,11,24,12,39,9.40
2008,11,24,12,40,9.40
2008,11,24,12,41,9.40
2008,11,24,12,42,9.40
2008,11,24,12,43,9.40
2008,11,24,12,44,9.40
2008,11,24,12,45,9.40
2008,11,24,12,46,9.40
2008,11,24,12,47,9.40
2008,11,24,12,48,9.40
2008,11,24,12,49,9.40
2008,11,24,12,50,9.40
2008,11,24,12,51,9.50
2008,11,24,12,52,9.50
2008,11,24,12,53,9.60
2008,11,24,12,54,9.60
2008,11,24,12,55,9.60
2008,11,24,12,56,9.60
2008,11,24,12,57,9.70
2008,11,24,12,58,9.70
2008,11,24,12,59,9.70
2008,11,24,13,00,9.70
2008,11,24,13,01,9.70
2008,11,24,13,02,9.60
2008,11,24,13,03,9.60
2008,11,24,13,04,9.70
2008,11,24,13,05,9.70
2008,11,24,13,06,9.70
2008,11,24,13,07,9.70
2008,11,24,13,08,9.70
2008,11,24,13,09,9.80
2008,11,24,13,10,9.80
2008,11,24,13,11,9.80
2008,11,24,13,12,9.80
2008,11,24,13,13,9.80
2008,11,24,13,14,9.70
2008,11,24,13,15,9.70
2008,11,24,13,16,9.70
2008,11,24,13,17,9.70
2008,11,24,13,18,9.70
2008,11,24,13,19,9.70
2008,11,24,13,20,9.70
2008,11,24,13,21,9.70
2008,11,24,13,22,9.70
2008,11,24,13,23,9.70
2008,11,24,13,24,9.70
2008,11,24,13,25,9.70
2008,11,24,13,26,9.80
2008,11,24,13,27,9.80
2008,11,24,13,28,9.80
2008,11,24,13,29,9.80
2008,11,24,13,30,9.90
2008,11,24,13,31,9.90
2008,11,24,13,32,9.90
2008,11,24,13,33,9.90
2008,11,24,13,34,9.90
2008,11,24,13,35,9.90
2008,11,24,13,36,9.90
2008,11,24,13,37,9.90
2008,11,24,13,38,9.90
2008,11,24,13,39,9.80
2008,11,24,13,40,9.80
2008,11,24,13,41,9.80
2008,11,24,13,42,9.80
2008,11,24,13,43,9.70
2008,11,24,13,44,9.70
2008,11,24,13,45,9.70
2008,11,24,13,46,9.70
2008,11,24,13,47,9.70
2008,11,24,13,48,9.60
2008,11,24,13,49,9.60
2008,11,24,13,50,9.60
2008,11,24,13,51,9.60
2008,11,24,13,52,9.60
2008,11,24,13,53,9.60
2008,11,24,13,54,9.60
2008,11,24,13,55,9.60
2008,11,24,13,56,9.60
2008,11,24,13,57,9.60
2008,11,24,13,58,9.60
2008,11,24,13,59,9.60
2008,11,24,14,00,9.50
2008,11,24,14,01,9.60
2008,11,24,14,02,9.60
2008,11,24,14,03,9.60
2008,11,24,14,04,9.60
2008,11,24,14,05,9.60
2008,11,24,14,06,9.70
2008,11,24,14,07,9.70
2008,11,24,14,08,9.60
2008,11,24,14,09,9.60
2008,11,24,14,10,9.60
2008,11,24,14,11,9.60
2008,11,24,14,12,9.60
2008,11,24,14,13,9.60
2008,11,24,14,14,9.50
2008,11,24,14,15,9.50
2008,11,24,14,16,9.50
2008,11,24,14,17,9.40
2008,11,24,14,18,9.40
2008,11,24,14,19,9.30
2008,11,24,14,20,9.30
2008,11,24,14,21,9.30
2008,11,24,14,22,9.30
2008,11,24,14,23,9.20
2008,11,24,14,24,9.20
2008,11,24,14,25,9.20
2008,11,24,14,26,9.20
2008,11,24,14,27,9.20
2008,11,24,14,28,9.20
2008,11,24,14,29,9.20
2008,11,24,14,30,9.20
2008,11,24,14,31,9.20
2008,11,24,14,32,9.20
2008,11,24,14,33,9.20
2008,11,24,14,34,9.30
2008,11,24,14,35,9.30
2008,11,24,14,36,9.30
2008,11,24,14,37,9.30
2008,11,24,14,38,9.40
2008,11,24,14,39,9.40
2008,11,24,14,40,9.40
2008,11,24,14,41,9.40
2008,11,24,14,42,9.40
2008,11,24,14,43,9.50
2008,11,24,14,44,9.50
2008,11,24,14,45,9.50
2008,11,24,14,46,9.50
2008,11,24,14,47,9.50
2008,11,24,14,48,9.50
2008,11,24,14,49,9.40
2008,11,24,14,50,9.40
2008,11,24,14,51,9.40
2008,11,24,14,52,9.40
2008,11,24,14,53,9.30
2008,11,24,14,54,9.30
2008,11,24,14,55,9.30
2008,11,24,14,56,9.30
2008,11,24,14,57,9.30
2008,11,24,14,58,9.30
2008,11,24,14,59,9.30
2008,11,24,15,00,9.30
2008,11,24,15,01,9.20
2008,11,24,15,02,9.20
2008,11,24,15,03,9.20
2008,11,24,15,04,9.20
2008,11,24,15,05,9.20
2008,11,24,15,06,9.20
2008,11,24,15,07,9.20
2008,11,24,15,08,9.20
2008,11,24,15,09,9.20
2008,11,24,15,10,9.20
2008,11,24,15,11,9.20
2008,11,24,15,12,9.20
2008,11,24,15,13,9.20
2008,11,24,15,14,9.20
2008,11,24,15,15,9.20
2008,11,24,15,16,9.20
2008,11,24,15,17,9.20
2008,11,24,15,18,9.20
2008,11,24,15,19,9.20
2008,11,24,15,20,9.20
2008,11,24,15,21,9.10
2008,11,24,15,22,9.10
2008,11,24,15,23,9.10
2008,11,24,15,24,9.10
2008,11,24,15,25,9.10
2008,11,24,15,26,9.10
2008,11,24,15,27,9.10
2008,11,24,15,28,9.10
2008,11,24,15,29,9.10
2008,11,24,15,30,9.10
2008,11,24,15,31,9.10
2008,11,24,15,32,9.10
2008,11,24,15,33,9.00
2008,11,24,15,34,9.00
2008,11,24,15,35,9.00
2008,11,24,15,36,9.00
2008,11,24,15,37,9.00
2008,11,24,15,38,9.00
2008,11,24,15,39,9.00
2008,11,24,15,40,9.00
2008,11,24,15,41,8.90
2008,11,24,15,42,8.90
2008,11,24,15,43,8.90
2008,11,24,15,44,8.90
2008,11,24,15,45,8.90
2008,11,24,15,46,8.90
2008,11,24,15,47,8.90
2008,11,24,15,48,8.80
2008,11,24,15,49,8.80
2008,11,24,15,50,8.80
2008,11,24,15,51,8.80
2008,11,24,15,52,8.70
2008,11,24,15,53,8.70
2008,11,24,15,54,8.70
2008,11,24,15,55,8.70
2008,11,24,15,56,8.60
2008,11,24,15,57,8.60
2008,11,24,15,58,8.60
2008,11,24,15,59,8.50
2008,11,24,16,00,8.40
2008,11,24,16,01,8.40
2008,11,24,16,02,8.30
2008,11,24,16,03,8.30
2008,11,24,16,04,8.20
2008,11,24,16,05,8.20
2008,11,24,16,06,8.20
2008,11,24,16,07,8.20
2008,11,24,16,08,8.10
2008,11,24,16,09,8.10
2008,11,24,16,10,8.10
2008,11,24,16,11,8.00
2008,11,24,16,12,8.00
2008,11,24,16,13,7.90
2008,11,24,16,14,7.90
2008,11,24,16,15,7.90
2008,11,24,16,16,7.80
2008,11,24,16,17,7.80
2008,11,24,16,18,7.80
2008,11,24,16,19,7.70
2008,11,24,16,20,7.70
2008,11,24,16,21,7.70
2008,11,24,16,22,7.60
2008,11,24,16,23,7.60
2008,11,24,16,24,7.60
2008,11,24,16,25,7.50
2008,11,24,16,26,7.50
2008,11,24,16,27,7.40
2008,11,24,16,28,7.40
2008,11,24,16,29,7.30
2008,11,24,16,30,7.30
2008,11,24,16,31,7.30
2008,11,24,16,32,7.20
2008,11,24,16,33,7.20
2008,11,24,16,34,7.20
2008,11,24,16,35,7.10
2008,11,24,16,36,7.10
2008,11,24,16,37,7.00
2008,11,24,16,38,7.00
2008,11,24,16,39,7.00
2008,11,24,16,40,6.90
2008,11,24,16,41,6.90
2008,11,24,16,42,6.90
2008,11,24,16,43,6.80
2008,11,24,16,44,6.80
2008,11,24,16,45,6.80
2008,11,24,16,46,6.80
2008,11,24,16,47,6.70
2008,11,24,16,48,6.70
2008,11,24,16,49,6.70
2008,11,24,16,50,6.70
2008,11,24,16,51,6.70
2008,11,24,16,52,6.60
2008,11,24,16,53,6.60
2008,11,24,16,54,6.60
2008,11,24,16,55,6.60
2008,11,24,16,56,6.60
2008,11,24,16,57,6.50
2008,11,24,16,58,6.50
2008,11,24,16,59,6.50
2008,11,24,17,00,6.50
2008,11,24,17,01,6.50
2008,11,24,17,02,6.50
2008,11,24,17,03,6.40
2008,11,24,17,04,6.40
2008,11,24,17,05,6.40
2008,11,24,17,06,6.40
2008,11,24,17,07,6.40
2008,11,24,17,08,6.40
2008,11,24,17,09,6.40
2008,11,24,17,10,6.40
2008,11,24,17,11,6.40
2008,11,24,17,12,6.40
2008,11,24,17,13,6.40
2008,11,24,17,14,6.40
2008,11,24,17,15,6.30
2008,11,24,17,16,6.30
2008,11,24,17,17,6.30
2008,11,24,17,18,6.30
2008,11,24,17,19,6.30
2008,11,24,17,20,6.30
2008,11,24,17,21,6.20
2008,11,24,17,22,6.20
2008,11,24,17,23,6.20
2008,11,24,17,24,6.20
2008,11,24,17,25,6.20
2008,11,24,17,26,6.20
2008,11,24,17,27,6.20
2008,11,24,17,28,6.20
2008,11,24,17,29,6.20
2008,11,24,17,30,6.20
2008,11,24,17,31,6.10
2008,11,24,17,32,6.10
2008,11,24,17,33,6.10
2008,11,24,17,34,6.10
2008,11,24,17,35,6.00
2008,11,24,17,36,6.00
2008,11,24,17,37,6.00
2008,11,24,17,38,5.90
2008,11,24,17,39,5.90
2008,11,24,17,40,5.80
2008,11,24,17,41,5.80
2008,11,24,17,42,5.80
2008,11,24,17,43,5.70
2008,11,24,17,44,5.70
2008,11,24,17,45,5.70
2008,11,24,17,46,5.60
2008,11,24,17,47,5.60
2008,11,24,17,48,5.50
2008,11,24,17,49,5.50
2008,11,24,17,50,5.40
2008,11,24,17,51,5.40
2008,11,24,17,52,5.30
2008,11,24,17,53,5.30
2008,11,24,17,54,5.30
2008,11,24,17,55,5.20
2008,11,24,17,56,5.20
2008,11,24,17,57,5.20
2008,11,24,17,58,5.10
2008,11,24,17,59,5.10
2008,11,24,18,00,5.10
2008,11,24,18,01,5.10
2008,11,24,18,02,5.10
2008,11,24,18,03,5.00
2008,11,24,18,04,5.00
2008,11,24,18,05,5.00
2008,11,24,18,06,5.00